Погода в Чаренцаване

Армения     40°24′12″N   44°38′46″E
темп.,
°C
ветер,
м/с
пор.,
м/с
влажн.,
%
обл.,
%
осадки,
мм/ч
давл.,
гПа
погр.,
м
16 октября, сб
сб1601:00+9в116177 0.0 102011
04:00+8ююв01625 0.0 101911
07:00+8вюв11612 0.0 101910
10:00+14юз12420 0.0 1017511
13:00+17юз45340 0.0 10151697
16:00+17юз35280 0.0 10131356
19:00+12ссв01444 0.0 101511
22:00+9всв22625 0.0 101622
17 октября, вс
вс1701:00+8св33740 0.0 101629
04:00+7св22770 0.0 101520
07:00+7всв11720 0.0 101512
10:00+14юз12410 0.0 1013459
13:00+17юз56260 0.0 10111698
16:00+16юз56210 0.0 10091612
19:00+11ю11328 0.0 101111
22:00+9всв223813 0.0 101212
18 октября, пн
пн1801:00+7в11522 0.0 101311
04:00+6ююз01530 0.0 101310
07:00+5ююз1155100 0.0 101410
10:00+11юз3440100 0.0 1013665
13:00+13юз4539100 0.0 10121550
16:00+12зюз4542100 0.1 10111614
19:00+8з2371100 1.4 101473
22:00+6ссз118050 3.8 1016102
19 октября, вт
вт1901:00+5св118525 0.6 101712
04:00+4ююв018326 0.7 101710
07:00+3ююз128984 0.8 101816
10:00+7юз457174 2.3 1017511
13:00+10юз455550 2.4 10151181
16:00+10зюз355451 4.3 10141385
19:00+7с006543 0.5 101511
22:00+5ююз116981 0.6 101613
20 октября, ср
ср2001:00+4юз227813 0.2 101621
04:00+4зюз12805 0.3 101622
07:00+2зюз22815 0.1 101721
10:00+7з35562 0.1 1018819
13:00+9зюз484171 0.0 10162013
16:00+9сз57345 0.0 10162031
19:00+4сз33470 0.0 102040
22:00+2ссз22562 0.0 102235